Weather History for Vernal, UT

Change the Weather History Date:

Monday, March 10, 2014

  Actual Average Record
Temperature  
Mean Temperature 48 °F 36 °F  
Max Temperature 63 °F 47 °F 72 °F (1972)
Min Temperature 32 °F 25 °F 2 °F (1969)
Degree Days  
Heating Degree Days 17 29  
Month to date heating degree days 237 308  
Since 1 July heating degree days 6044 5799  
Cooling Degree Days 0 0  
Month to date cooling degree days 0 0  
Year to date cooling degree days 0 0  
Moisture  
Dew Point 22 °F    
Average Humidity 42    
Maximum Humidity 70    
Minimum Humidity 14    
Precipitation  
Precipitation 0.00 in 0.02 in 0.37 in (1940)
Month to date precipitation 0.51 0.20  
Year to date precipitation 0.92 1.22  
Sea Level Pressure  
Sea Level Pressure 29.92 in    
Wind  
Wind Speed 8 mph (WSW)    
Max Wind Speed 24 mph    
Max Gust Speed 30 mph    
Visibility 10 miles    
Events      
T = Trace of Precipitation, MM = Missing Value Source: NWS Daily Summary

Daily Weather History Graph

Daily Weather History Graph

Search for Another Location

Airport:

Trip Planner

Search our weather history database for the weather conditions in past years. The results will help you decide how hot, cold, wet, or windy it might be!

Date:

Astronomy

Mar. 10, 2014 Rise Set
Actual Time 7:37 AM MDT 7:19 PM MDT
Civil Twilight 7:10 AM MDT 7:46 PM MDT
Nautical Twilight 6:38 AM MDT 8:18 PM MDT
Astronomical Twilight 6:07 AM MDT 8:50 PM MDT
Moon 2:05 PM MDT (3/10) 3:52 AM MDT (3/10)
Length of Visible Light 12h 36m
Length of Day
11h 42m
Waxing Gibbous, 70% of the Moon is Illuminated
Mar 10
Waxing Gibbous
Mar 16
Full
Mar 23
Last Quarter
Mar 30
New
Apr 7
First Quarter

Hourly Weather History & Observations

Time (MDT) Temp. Windchill Dew Point Humidity Pressure Visibility Wind Dir Wind Speed Gust Speed Precip Events Conditions
12:53 AM 36.0 °F 30.3 °F 26.1 °F 67% 30.17 in 10.0 mi West 6.9 mph - N/A   Clear
1:53 AM 34.0 °F 29.8 °F 25.0 °F 70% 30.16 in 10.0 mi WNW 4.6 mph - N/A   Clear
2:53 AM 35.1 °F 31.0 °F 24.1 °F 64% 30.13 in 10.0 mi WNW 4.6 mph - N/A   Clear
3:53 AM 35.1 °F 31.0 °F 24.1 °F 64% 30.10 in 10.0 mi West 4.6 mph - N/A   Clear
4:53 AM 34.0 °F 28.8 °F 24.1 °F 67% 30.09 in 10.0 mi WNW 5.8 mph - N/A   Clear
5:53 AM 33.1 °F 28.7 °F 24.1 °F 70% 30.09 in 10.0 mi West 4.6 mph - N/A   Clear
6:53 AM 34.0 °F 28.8 °F 24.1 °F 67% 30.07 in 10.0 mi West 5.8 mph - N/A   Clear
7:53 AM 34.0 °F 31.0 °F 24.1 °F 67% 30.07 in 10.0 mi WNW 3.5 mph - N/A   Clear
8:53 AM 37.0 °F - 26.1 °F 65% 30.06 in 10.0 mi Calm Calm - N/A   Clear
9:53 AM 44.1 °F - 27.0 °F 51% 30.04 in 10.0 mi Calm Calm - N/A   Clear
10:53 AM 46.9 °F - 26.1 °F 44% 30.01 in 10.0 mi ENE 3.5 mph - N/A   Clear
11:53 AM 48.9 °F - 26.1 °F 41% 29.99 in 10.0 mi SE 9.2 mph - N/A   Clear
12:53 PM 50.0 °F - 25.0 °F 38% 29.95 in 10.0 mi Variable 3.5 mph - N/A   Clear
1:53 PM 53.1 °F - 25.0 °F 34% 29.89 in 10.0 mi Variable 3.5 mph - N/A   Clear
2:53 PM 57.0 °F - 27.0 °F 32% 29.81 in 10.0 mi Variable 5.8 mph - N/A   Clear
3:53 PM 61.0 °F - 19.0 °F 20% 29.75 in 10.0 mi SSW 12.7 mph - N/A   Clear
4:53 PM 62.1 °F - 16.0 °F 17% 29.71 in 10.0 mi SSW 12.7 mph 19.6 mph N/A   Clear
5:53 PM 63.0 °F - 12.9 °F 14% 29.68 in 10.0 mi SW 18.4 mph 27.6 mph N/A   Clear
6:53 PM 60.1 °F - 10.0 °F 14% 29.69 in 10.0 mi WSW 19.6 mph 28.8 mph N/A   Clear
7:53 PM 55.9 °F - 12.9 °F 18% 29.71 in 10.0 mi WSW 10.4 mph - N/A   Clear
8:53 PM 53.1 °F - 19.0 °F 26% 29.71 in 10.0 mi WSW 6.9 mph - N/A   Clear
9:53 PM 52.0 °F - 19.0 °F 27% 29.69 in 10.0 mi West 10.4 mph - N/A   Clear
10:53 PM 50.0 °F - 21.9 °F 33% 29.70 in 10.0 mi SW 11.5 mph 17.3 mph N/A   Clear
11:53 PM 46.0 °F 39.3 °F 21.9 °F 39% 29.73 in 10.0 mi WSW 16.1 mph 25.3 mph N/A   Clear